GFSNGP_925_rhum_282.txt.gz
RH
86 76 84 84 98 92 94 96 97 98 96 96 95 95 94 91 87 86 87 85 88 92 93 95 96 96 98 100 100 100 100 100 100 100 99 100 100 100 100 98 99 99 100 100
92 85 82 85 83 84 92 95 96 96 97 95 95 92 90 91 88 88 89 88 89 88 91 93 96 97 97 99 100 100 100 100 99 99 98 100 100 99 100 99 97 95 100 99
98 78 86 85 100 99 94 94 97 97 96 94 95 94 94 93 93 94 93 93 90 93 94 95 96 97 97 97 97 99 100 100 98 98 100 100 100 100 100 100 99 96 100 100
100 71 100 95 87 76 91 95 94 92 94 95 95 95 94 94 94 94 94 94 93 94 95 96 97 97 97 97 97 97 98 98 98 99 99 99 100 100 100 100 100 100 100 100
98 99 88 96 93 95 98 96 95 95 92 91 90 95 95 94 94 95 95 95 96 97 96 98 98 97 97 97 98 98 98 98 98 98 98 100 99 100 100 100 100 100 100 100
92 94 96 98 81 91 96 96 94 94 94 94 81 90 93 93 94 94 95 96 97 96 97 97 97 97 97 97 97 98 97 98 98 98 98 98 100 100 100 100 100 100 100 99
100 100 99 92 89 93 91 86 87 90 94 94 94 96 95 93 91 95 96 97 97 97 97 98 96 96 96 98 97 96 96 97 97 97 97 98 99 99 100 100 99 99 100 100
96 100 98 86 80 92 89 92 95 87 88 91 91 88 89 87 89 90 94 95 96 96 97 97 96 98 97 97 97 96 96 96 97 97 97 98 98 98 98 99 100 99 100 100
93 95 96 97 98 97 98 99 95 98 87 82 82 78 73 78 78 90 96 92 97 97 96 97 96 96 98 97 96 96 96 95 97 96 97 97 98 98 98 98 98 99 99 100
94 96 99 97 92 88 89 93 90 89 91 82 85 75 76 74 78 81 82 84 89 94 96 96 95 96 96 96 96 95 96 95 97 97 96 96 97 98 100 100 100 100 100 100
100 97 97 95 96 97 90 86 83 87 89 90 88 82 84 85 85 88 85 88 90 94 94 97 96 96 96 96 96 94 96 98 98 96 96 96 97 98 98 98 99 100 100 100
99 96 98 95 97 98 99 95 95 95 91 92 98 98 96 93 94 97 96 97 98 97 96 95 95 93 94 97 96 98 96 100 100 97 93 95 99 96 91 96 95 97 98 98
99 98 98 97 99 98 100 99 96 99 100 100 96 100 96 96 90 90 87 96 98 96 96 95 95 93 91 94 98 98 97 100 98 97 95 99 99 100 97 76 90 94 98 98
98 98 95 97 99 98 100 98 96 92 95 99 100 93 89 90 84 84 89 100 90 93 93 93 95 96 98 95 96 96 92 100 99 95 94 100 93 94 98 98 97 89 79 96
96 97 96 97 96 90 92 96 90 96 98 94 94 98 91 89 88 87 88 97 80 87 91 90 97 97 97 98 95 89 97 100 98 92 91 100 97 97 95 97 99 97 92 88
95 96 96 96 96 94 94 93 98 96 95 97 97 96 94 89 86 83 82 90 85 93 97 92 95 98 98 92 96 87 83 99 96 95 95 98 100 97 98 100 100 100 100 100
93 88 88 87 92 95 97 97 99 99 99 96 92 94 96 89 81 81 81 77 80 85 94 89 96 96 97 82 100 92 88 88 99 90 94 98 100 97 100 100 100 100 100 100
92 96 96 95 97 96 95 95 96 96 97 95 87 88 91 93 98 94 84 77 76 77 87 90 94 93 95 84 100 85 90 92 94 97 96 99 100 94 100 100 100 100 100 100
92 92 93 88 97 95 98 97 96 96 96 95 92 89 93 91 94 93 86 78 82 90 92 94 93 76 96 97 94 83 90 93 93 92 93 99 90 100 97 100 100 100 100 100
82 86 90 89 94 97 97 96 97 96 96 97 94 85 90 84 87 90 90 85 82 88 99 98 73 77 98 99 96 85 91 94 95 95 98 98 96 97 95 98 100 99 98 100
88 90 92 94 97 90 90 98 100 98 94 92 96 88 90 82 83 86 92 94 80 90 96 95 68 78 96 97 78 84 92 95 96 98 97 100 96 96 96 97 98 100 100 100
98 99 97 98 99 97 92 95 93 88 85 94 95 91 86 84 81 86 88 90 93 95 99 94 71 92 98 93 82 88 93 95 98 98 98 99 100 99 97 98 98 99 100 99
98 97 97 95 98 96 92 89 87 88 85 81 84 91 87 85 86 97 98 85 99 91 98 87 91 85 92 90 88 92 95 96 98 99 100 100 99 98 98 98 98 97 98 100
100 96 97 94 96 97 94 88 92 89 84 85 84 85 89 88 84 82 92 100 95 91 95 98 95 94 100 90 93 95 96 97 98 100 99 100 98 98 98 98 97 96 97 98
98 97 94 94 99 94 95 89 90 81 82 90 86 83 80 78 93 90 96 94 96 93 96 85 100 100 81 85 96 96 96 97 100 100 99 99 98 98 97 97 97 98 98 98
98 96 98 98 99 96 91 92 93 90 96 96 90 81 73 78 87 97 92 95 100 94 80 83 85 92 76 77 100 96 97 96 96 95 100 98 97 97 96 96 96 97 97 98
93 93 94 96 82 85 90 98 99 94 88 97 96 76 88 94 92 99 91 90 90 88 78 82 88 82 79 88 84 92 96 97 98 100 97 97 96 97 97 97 96 96 96 96

GFSNGP_925_rhum_288.txt.gz
RH
57 65 70 72 81 86 84 86 85 86 85 84 87 88 91 89 85 83 86 86 88 89 91 93 94 96 97 97 98 100 100 100 100 100 100 100 100 100 100 100 100 100 100 98
69 62 70 79 72 73 80 82 80 85 85 84 84 81 84 88 88 86 86 86 87 86 87 91 95 96 97 97 97 97 100 100 100 100 100 99 100 100 100 100 99 100 100 100
62 62 70 81 83 79 80 81 87 84 84 84 84 86 89 88 89 90 89 89 88 90 92 94 96 97 97 97 97 97 98 99 100 100 100 100 100 100 100 100 100 99 99 100
69 76 82 86 69 61 79 82 82 83 84 85 90 89 89 90 91 89 91 91 90 92 92 95 97 97 97 97 97 97 98 98 98 99 100 100 100 99 100 100 100 100 100 100
76 68 74 83 82 81 85 84 81 85 83 81 78 87 87 85 89 92 92 93 95 96 97 97 97 97 97 97 97 97 97 98 98 98 98 100 100 100 99 100 100 100 100 100
83 76 67 76 69 71 78 80 76 78 80 86 70 78 78 85 88 88 94 96 96 97 97 97 97 97 97 97 97 97 97 98 98 97 98 98 99 100 100 100 100 100 100 100
78 83 80 77 73 75 93 90 72 76 80 84 85 88 86 85 85 92 95 96 97 98 97 97 97 97 96 97 97 97 97 97 97 97 98 98 98 99 99 100 98 99 100 100
88 91 94 79 68 80 86 72 74 71 74 80 80 81 80 80 86 89 91 92 95 95 96 98 97 98 96 96 97 96 97 97 97 97 97 98 98 99 98 98 99 99 99 100
92 89 85 82 86 82 81 78 74 75 71 72 69 72 73 75 79 87 91 92 96 96 96 98 99 99 95 98 96 97 97 97 98 97 97 97 98 98 98 98 99 99 99 99
82 84 84 80 75 75 74 77 74 70 71 67 71 64 65 66 70 76 77 84 90 91 93 94 99 99 99 97 96 98 97 97 97 98 97 97 97 98 98 98 98 98 98 99
89 87 85 82 80 83 77 70 70 72 73 74 72 69 72 68 72 76 78 82 81 83 86 92 97 99 100 100 100 97 98 97 97 97 98 98 97 98 98 98 98 98 99 99
87 88 90 86 88 87 86 86 86 82 76 78 85 84 83 79 83 86 88 90 86 88 90 97 100 100 100 99 96 100 98 96 97 97 97 97 97 96 98 97 97 96 97 98
88 89 90 90 93 97 92 95 97 95 97 94 95 99 97 94 98 95 98 100 99 100 100 100 100 100 95 96 99 100 100 98 94 96 96 95 96 98 95 89 97 100 99 98
91 90 88 89 88 98 100 98 96 96 96 99 100 100 100 100 95 96 93 89 87 97 98 100 100 100 99 100 99 100 100 93 90 92 95 94 90 90 91 89 90 94 98 100
90 94 93 97 97 95 97 97 87 92 97 96 95 96 99 98 95 94 88 81 80 91 92 96 96 91 94 96 100 100 100 95 93 94 94 92 90 90 90 90 91 94 93 91
87 86 88 88 85 85 87 86 84 88 91 98 99 95 96 94 90 88 84 80 86 98 97 98 97 88 94 98 100 93 99 100 98 95 92 88 88 90 92 91 90 93 95 100
79 74 72 73 79 79 83 89 90 87 92 93 98 100 94 92 92 91 85 78 77 89 95 100 99 92 88 99 96 94 99 99 100 96 96 91 92 93 96 95 94 95 98 99
83 86 83 81 83 77 76 79 82 84 87 94 97 97 90 94 96 98 96 85 73 76 96 90 97 92 86 96 93 95 99 99 97 98 99 95 97 97 99 98 97 98 99 99
79 79 77 77 84 83 82 79 82 88 91 92 91 90 94 91 93 93 95 97 87 84 93 92 89 80 95 94 94 95 98 99 98 96 97 98 97 99 100 100 100 100 100 99
74 76 78 77 82 85 83 86 92 91 91 89 87 86 85 84 87 88 89 92 89 93 98 95 80 86 100 100 98 96 100 100 99 98 99 98 99 100 100 100 100 100 100 100
81 82 82 83 83 87 89 92 95 90 89 88 85 84 88 91 86 87 81 77 79 90 93 98 78 84 97 100 78 100 100 100 100 100 100 100 100 100 100 100 100 100 100 100
95 100 100 97 98 96 93 96 97 94 92 92 89 86 90 87 88 87 86 89 88 92 98 95 84 88 100 84 68 100 100 100 100 100 100 100 100 100 100 100 100 100 100 100
93 95 94 93 95 96 97 95 91 95 94 95 96 92 94 94 95 91 78 79 96 90 99 94 86 88 98 77 68 99 100 100 100 100 100 100 100 100 100 100 100 100 100 100
94 95 99 100 98 100 94 90 97 97 90 85 84 87 92 94 86 88 90 93 96 97 96 94 91 86 100 79 76 100 100 100 100 100 100 100 100 100 100 100 100 100 100 100
100 99 95 98 100 90 97 96 96 89 88 91 87 85 82 90 97 88 93 91 98 98 94 99 96 97 100 92 80 100 89 95 100 100 100 100 100 100 100 100 100 100 100 98
100 99 100 100 100 99 98 99 96 94 95 87 85 88 87 90 94 100 98 100 99 100 96 92 84 96 100 90 100 79 76 79 90 94 100 100 99 98 99 99 99 99 98 98
98 93 99 96 90 94 99 100 96 92 95 99 95 90 99 100 100 97 98 98 100 93 86 85 90 82 97 99 94 77 75 77 85 96 100 97 97 97 97 96 96 97 97 99

GFSNGP_925_rhum_291.txt.gz
RH
50 52 64 66 74 78 81 76 86 83 84 83 80 86 83 80 83 84 86 86 91 92 92 94 94 95 96 97 97 98 98 100 100 100 100 100 99 99 100 100 100 91 92 92
61 49 52 68 68 71 79 74 77 82 83 76 76 78 76 84 86 87 87 88 91 90 92 93 94 95 96 97 97 97 98 99 100 100 99 100 99 100 100 100 100 96 90 97
63 77 56 74 65 69 75 74 82 83 83 75 80 87 86 84 86 91 91 92 92 93 94 94 95 97 96 97 97 97 98 98 100 100 100 100 100 100 100 100 100 100 99 100
71 71 82 80 58 53 68 75 73 75 79 80 88 92 88 87 88 91 92 92 91 93 94 95 96 96 97 97 97 97 97 98 98 98 100 100 100 100 99 100 100 100 100 100
85 55 78 80 74 80 77 88 74 79 72 71 71 74 90 82 87 92 94 94 95 96 96 96 96 97 97 97 97 97 97 98 98 98 98 100 100 100 100 100 100 100 100 100
80 72 67 74 63 62 68 83 69 71 73 77 62 74 75 88 86 85 89 95 95 96 96 96 96 97 96 96 96 96 97 98 98 97 98 98 100 100 100 100 100 100 100 100
77 69 86 71 63 63 92 90 64 65 72 79 82 86 83 79 82 91 95 96 96 96 96 97 97 98 96 95 96 98 98 97 97 97 97 98 98 98 98 100 99 100 100 100
81 84 90 74 64 81 84 63 63 63 64 74 70 65 67 67 74 85 90 90 91 95 96 97 98 97 96 95 98 97 97 97 97 97 97 98 98 98 98 99 99 99 100 100
89 88 85 81 84 77 73 72 69 69 63 62 60 58 56 61 62 71 82 87 90 96 95 96 98 98 95 97 98 97 97 97 97 97 97 97 98 98 98 98 98 99 99 99
86 83 83 80 67 66 67 72 66 60 61 58 64 56 58 57 60 65 70 77 80 82 87 94 98 97 99 99 100 97 98 97 97 97 97 97 97 98 98 99 98 98 98 99
85 82 80 76 74 75 69 63 62 64 64 65 65 62 65 64 68 73 73 75 75 78 80 88 94 98 100 100 100 99 98 97 97 97 97 97 97 98 98 98 99 99 99 99
87 86 88 84 81 78 80 79 77 76 72 72 75 77 77 76 78 83 83 84 83 86 87 93 98 100 100 100 100 100 98 97 97 97 97 97 97 97 98 98 98 96 96 97
87 87 86 83 86 89 88 88 93 89 92 89 88 90 90 90 92 92 94 95 98 100 99 100 100 100 99 100 100 99 100 98 90 92 97 96 97 97 96 95 98 97 98 97
86 86 87 80 86 95 96 96 96 94 94 99 100 98 100 100 96 93 91 88 85 97 100 100 100 100 97 98 100 99 97 92 92 92 93 90 90 92 93 96 95 93 94 97
85 87 89 92 90 85 89 90 83 90 94 94 97 99 98 99 94 91 88 80 76 94 91 92 100 97 93 97 97 95 96 96 95 91 90 85 88 90 91 92 93 93 93 95
81 84 82 83 80 77 78 74 78 82 83 90 93 96 96 97 95 94 90 88 93 95 96 100 100 93 92 99 92 92 95 93 92 90 91 89 89 91 93 93 94 95 96 100
80 75 73 69 73 75 78 78 80 80 82 85 91 95 95 92 84 88 94 89 91 90 99 95 96 98 86 98 99 93 95 94 92 93 93 92 93 94 96 95 95 96 98 97
75 81 77 74 77 70 70 70 73 74 77 79 82 84 82 86 89 88 90 93 92 85 87 83 96 92 93 89 97 90 94 94 92 92 95 93 95 94 95 96 97 97 97 97
66 71 70 69 73 74 71 69 70 72 75 78 75 75 78 79 79 82 83 86 80 75 80 94 86 88 96 94 88 90 94 94 92 92 93 91 93 92 93 95 95 94 94 96
66 68 69 69 70 73 72 72 73 74 74 77 74 69 68 71 75 77 79 78 76 81 95 94 85 83 96 98 89 92 97 96 94 93 94 92 95 94 93 95 96 95 94 95
74 75 76 74 74 74 74 75 77 78 76 75 74 72 72 72 73 75 73 69 68 78 88 87 79 77 98 96 79 94 98 98 97 97 96 94 93 93 95 95 94 94 96 95
80 87 90 91 90 86 83 82 83 82 80 79 78 77 77 77 73 72 71 72 74 79 90 93 83 80 98 93 69 93 99 100 100 98 98 97 97 97 99 98 96 99 98 99
77 78 78 79 81 84 87 86 85 90 97 97 92 90 87 86 86 82 76 71 78 82 91 96 83 82 95 88 75 94 100 100 100 100 99 96 98 99 99 100 99 100 100 98
80 82 86 90 96 94 85 77 83 85 90 92 92 92 100 89 78 76 76 77 82 86 93 94 84 88 88 97 98 99 100 100 100 100 99 100 98 98 100 100 100 100 100 100
93 96 98 96 89 76 78 78 82 79 77 79 78 80 84 86 86 85 89 94 92 90 91 86 85 88 96 99 100 100 100 97 100 100 100 100 100 100 100 100 99 100 100 97
92 90 91 90 90 88 85 84 82 78 81 83 75 74 75 77 88 91 95 91 96 92 98 97 93 97 98 98 100 100 88 80 86 89 100 100 100 98 98 96 96 96 97 97
87 83 94 92 80 85 87 93 96 86 80 83 86 82 91 92 90 86 87 92 92 95 96 97 99 100 100 100 100 98 87 77 76 90 97 94 97 97 96 96 96 96 96 96

GFSNGP_925_rhum_294.txt.gz
RH
54 46 85 84 88 91 98 92 96 92 100 100 97 99 91 88 79 80 84 86 90 92 92 93 94 95 96 96 97 98 97 98 98 100 100 100 100 100 100 100 84 78 91 100
91 48 70 80 82 86 94 88 94 93 96 90 85 80 84 90 86 86 88 89 91 90 91 93 94 95 96 97 97 97 98 98 98 100 100 100 100 100 96 99 99 84 77 96
88 49 56 96 90 87 91 86 94 100 98 89 88 90 96 92 92 93 93 92 92 93 94 94 95 96 96 97 97 96 97 98 98 98 100 99 99 99 98 100 99 100 89 95
92 69 95 96 71 63 87 93 87 91 93 92 90 84 96 94 94 92 93 92 91 94 94 95 96 96 97 97 96 97 97 98 98 98 98 100 98 100 99 99 99 100 100 99
91 76 93 93 84 92 88 100 89 94 91 86 80 78 96 83 91 94 94 94 95 96 96 96 96 97 97 96 97 96 97 97 98 98 98 99 100 100 100 99 100 100 100 100
94 92 94 93 74 74 81 100 92 90 94 95 79 88 86 91 92 92 94 95 96 96 96 96 96 96 96 96 96 96 97 97 98 97 98 98 99 100 100 99 100 100 100 100
90 92 97 88 70 69 100 100 79 81 92 96 98 96 90 77 87 91 95 96 97 96 96 97 96 97 96 96 96 97 97 97 97 97 98 98 98 99 100 100 100 100 98 100
84 98 99 90 80 90 96 94 81 81 82 89 84 73 66 61 70 78 92 95 96 95 96 96 97 97 96 96 97 96 96 97 97 98 98 98 98 98 98 99 99 100 100 100
100 99 97 95 96 94 91 93 90 87 77 70 72 67 62 64 61 69 75 84 91 96 96 96 96 97 96 97 97 95 97 97 97 98 97 97 98 98 98 98 98 99 99 99
96 96 96 95 83 76 82 90 77 68 69 68 77 67 70 69 68 73 76 74 78 85 89 94 98 97 98 98 96 96 97 97 97 97 97 97 97 98 98 98 98 98 98 99
100 96 96 94 90 91 84 71 72 73 69 73 80 76 78 80 79 85 82 80 82 88 88 95 100 100 100 100 100 98 98 97 97 97 97 97 97 98 98 99 99 99 99 99
100 99 99 99 97 92 96 96 92 95 90 85 89 95 92 92 92 98 91 90 91 94 100 100 100 100 100 100 100 100 100 97 97 97 97 97 97 96 98 98 98 97 96 98
100 97 98 93 90 94 100 98 96 89 95 100 95 99 100 100 97 94 89 93 90 97 100 98 100 100 98 100 100 100 100 99 93 96 97 97 96 97 95 95 98 98 98 98
95 96 98 96 100 91 96 91 90 92 87 93 98 95 97 98 93 90 92 97 91 90 94 93 100 100 94 98 100 99 99 97 94 95 98 96 97 97 97 96 96 96 96 98
90 95 96 94 89 86 84 89 94 96 91 91 88 95 95 96 96 95 93 93 90 83 89 94 100 97 89 97 100 97 100 99 96 94 96 92 94 96 98 97 97 97 97 96
90 87 88 96 94 81 82 79 93 93 92 90 96 92 89 94 89 87 85 90 97 99 92 99 92 100 88 95 100 92 100 95 91 94 98 96 95 96 97 98 97 97 98 99
96 90 92 89 89 90 84 80 84 86 84 94 88 92 92 96 82 84 86 84 85 84 85 88 90 99 88 88 100 86 99 100 94 95 100 98 97 99 99 99 98 98 100 97
71 76 78 73 82 85 83 75 73 75 76 77 82 82 82 84 90 86 81 82 79 79 78 86 95 86 92 87 97 76 98 100 99 98 99 98 98 98 99 99 100 100 100 98
66 70 72 70 74 72 76 77 76 75 76 79 81 78 72 73 76 78 80 79 78 80 69 89 91 75 86 92 85 69 94 96 99 97 98 90 100 98 100 99 99 99 99 99
70 71 74 72 74 74 77 77 76 77 78 78 78 76 74 72 73 74 76 78 72 71 78 94 86 70 95 98 86 66 92 96 100 98 98 94 100 99 100 100 98 99 98 97
80 78 80 82 83 85 83 83 83 84 83 82 80 80 79 78 77 77 75 78 74 73 82 85 82 68 94 99 76 61 88 96 98 99 98 99 100 99 99 100 99 100 98 97
84 84 87 87 92 92 89 88 87 86 89 89 88 88 87 86 83 83 80 78 72 75 80 95 91 85 91 91 78 62 85 94 99 97 98 97 100 99 100 100 100 100 99 97
87 87 85 89 93 94 91 87 87 89 90 91 93 94 95 94 95 98 93 80 81 84 92 87 85 82 84 93 78 68 83 92 95 99 100 100 100 99 100 100 100 98 98 99
91 93 91 89 93 95 99 92 84 84 84 84 86 84 88 95 95 84 82 81 80 84 95 96 81 84 97 89 72 80 91 87 81 90 100 100 100 100 98 98 98 97 97 97
93 93 95 96 97 94 88 85 86 84 82 81 79 80 85 82 87 82 85 93 91 88 87 91 86 96 89 75 87 89 94 89 88 100 96 96 100 98 97 97 97 99 98 96
94 98 95 97 100 100 98 96 96 90 92 98 91 80 73 74 79 83 82 84 93 93 95 89 83 86 94 98 99 96 92 83 78 71 94 88 94 96 97 97 96 96 96 97
92 80 89 97 88 90 90 94 98 92 78 87 90 74 79 96 96 87 87 88 86 88 90 88 89 96 96 97 98 99 94 79 79 85 94 80 76 91 97 96 96 96 96 97

GFSNGP_925_rhum_297.txt.gz
RH
74 70 82 86 92 90 93 88 85 83 100 96 98 95 90 92 85 79 80 81 86 90 91 92 94 94 95 96 98 98 97 98 99 99 98 98 100 100 100 100 90 100 100 100
86 68 67 83 91 94 97 100 100 100 96 93 91 95 94 94 90 86 85 84 86 87 89 92 94 95 96 96 97 98 97 97 98 98 98 100 100 100 100 100 99 96 93 89
91 64 65 83 94 89 94 97 89 97 85 100 98 95 97 95 93 93 90 90 91 92 94 94 95 96 96 97 97 97 97 97 98 97 98 98 99 100 100 100 99 100 97 90
93 93 98 90 73 69 88 99 99 98 99 100 99 90 95 96 95 91 91 91 90 93 94 95 96 96 97 97 96 97 97 97 97 97 98 97 98 100 100 100 100 99 98 100
96 96 94 97 92 90 88 98 99 98 99 97 88 86 97 84 90 94 94 94 95 96 96 96 96 97 97 96 96 96 96 98 97 98 98 98 98 99 100 99 100 100 99 100
98 94 99 100 90 80 80 100 96 96 100 100 86 98 92 88 84 90 92 96 96 96 97 96 96 97 96 96 96 96 96 98 98 97 98 98 98 99 99 100 100 100 100 100
97 94 96 92 87 85 97 96 89 97 99 100 100 96 91 76 72 72 91 96 96 96 96 97 97 98 95 96 96 97 97 98 96 97 97 98 98 99 98 99 100 100 98 99
93 100 99 87 87 92 97 94 90 94 93 97 95 85 77 70 72 70 80 89 95 96 96 97 97 98 95 95 97 97 97 96 97 97 98 98 98 98 98 98 99 100 100 99
97 97 96 96 96 95 95 94 92 97 92 84 86 79 69 77 74 75 81 74 77 89 96 96 97 97 95 97 97 97 97 96 97 97 97 97 98 98 97 98 97 97 98 98
99 98 96 95 90 87 89 89 85 81 79 82 92 81 80 80 82 84 86 72 80 83 89 94 98 98 98 98 97 97 96 96 97 96 97 97 97 98 97 98 97 97 96 97
100 94 95 95 93 95 86 81 81 88 84 82 90 87 89 90 90 93 92 85 85 88 92 97 100 100 100 100 98 98 97 96 97 97 97 97 97 98 98 98 99 98 98 99
100 98 98 97 97 95 96 100 96 99 92 90 95 99 99 98 98 100 97 95 97 95 99 100 100 100 100 100 100 100 98 97 97 97 97 97 96 96 98 98 99 99 98 99
98 97 97 96 97 95 100 97 93 95 95 100 91 98 100 100 96 96 93 95 97 100 92 98 100 100 93 100 100 100 100 98 94 96 97 97 96 96 95 95 99 99 98 99
93 93 94 92 96 92 98 94 95 95 93 89 92 92 96 99 94 91 93 92 95 90 89 93 99 100 88 100 100 95 97 98 93 99 98 96 97 97 97 96 95 96 98 98
92 91 97 97 98 89 89 93 95 95 88 93 92 96 95 96 100 89 85 87 87 85 86 91 94 99 85 97 98 93 100 99 94 99 98 94 97 96 97 96 96 96 96 95
91 78 83 91 92 85 91 84 100 97 95 95 96 88 90 95 95 85 84 81 85 87 83 88 92 96 83 95 90 85 100 98 93 99 100 98 98 98 97 97 96 96 97 98
96 88 90 88 91 91 95 92 94 90 82 81 82 87 86 79 82 85 83 79 77 78 77 85 93 89 80 95 86 68 98 100 98 100 100 100 99 100 99 98 98 99 100 97
80 74 76 83 89 92 83 80 87 84 80 77 81 84 82 75 78 79 75 78 75 73 70 79 96 79 83 92 90 60 88 96 100 100 100 100 99 100 100 100 100 100 100 100
77 73 75 76 76 82 84 84 82 82 81 79 82 84 79 78 76 75 76 77 77 78 71 79 96 68 91 94 91 60 77 91 99 95 100 98 100 100 100 100 100 100 100 100
80 78 78 74 77 82 86 84 85 87 85 84 84 85 86 83 82 80 78 81 78 74 76 90 89 68 69 99 89 61 65 87 99 99 100 97 100 100 100 100 100 100 100 100
88 91 89 92 92 91 92 92 94 94 89 87 91 92 93 88 86 85 87 91 74 75 81 81 86 67 80 97 79 64 60 78 92 99 100 100 100 100 100 100 100 99 99 97
96 96 93 92 93 94 88 90 89 88 90 91 92 94 95 94 91 91 88 92 82 87 82 91 88 73 97 91 83 68 61 77 82 91 97 100 100 100 100 100 100 98 98 97
96 95 96 94 94 96 96 88 86 91 93 91 86 87 90 90 92 100 100 79 89 89 94 88 88 83 96 95 79 64 64 74 80 90 98 100 100 100 100 100 100 99 100 99
99 99 98 92 94 97 97 86 88 85 83 80 79 80 83 88 90 84 80 85 85 90 97 90 81 84 98 91 78 65 79 81 85 98 98 100 97 99 98 99 98 98 99 97
97 96 93 93 99 99 96 94 94 88 83 82 82 84 84 86 81 75 81 88 88 87 91 99 88 89 86 81 91 87 94 91 97 100 76 89 88 93 97 98 98 99 97 96
99 98 100 98 99 100 100 99 100 98 100 98 92 79 76 71 78 89 85 87 96 93 88 80 83 91 97 96 95 99 97 90 90 80 95 84 77 76 89 97 97 97 96 96
94 82 89 96 87 94 86 86 96 99 96 99 100 88 92 97 97 92 91 86 83 86 89 86 82 90 98 100 100 100 100 99 94 94 99 80 71 75 76 93 95 96 96 97

GFSNGP_925_rhum_303.txt.gz
RH
76 51 74 70 80 97 100 92 89 71 82 83 93 98 98 100 89 79 84 81 85 87 87 88 90 94 96 98 97 100 100 100 100 100 100 100 100 100 99 98 97 96 97 96
91 78 67 69 74 87 97 100 99 100 98 82 94 98 92 94 94 91 89 87 86 85 87 90 93 97 98 97 100 100 100 99 100 100 100 100 100 99 100 100 99 98 98 96
91 77 82 95 89 97 100 100 90 100 85 100 96 95 97 100 97 99 94 94 90 90 93 93 97 100 99 99 100 100 100 98 98 99 100 100 100 100 98 99 100 99 95 96
94 94 98 85 90 85 90 100 99 98 98 99 96 93 96 96 100 99 93 90 89 94 94 96 100 100 100 100 98 98 98 98 98 98 98 98 98 98 97 100 100 99 97 95
95 94 91 93 92 97 96 95 99 98 96 90 92 95 98 97 100 99 92 88 92 98 97 100 100 99 100 98 97 97 96 98 98 98 97 97 97 97 97 98 99 100 100 99
95 95 96 99 92 88 97 97 100 96 96 96 79 94 91 80 90 85 82 84 92 87 88 96 97 100 99 96 97 95 97 97 98 97 97 97 97 97 97 98 99 99 100 100
96 98 96 90 91 91 92 90 93 93 97 93 95 95 90 88 83 82 84 87 89 86 89 90 94 100 98 97 95 98 98 97 97 97 97 97 97 97 97 98 99 98 99 100
94 99 99 87 82 91 94 97 94 89 88 93 94 94 88 78 82 83 87 91 93 89 89 87 90 99 98 95 98 98 98 97 97 97 97 97 97 96 97 98 97 97 98 98
99 98 97 97 98 97 97 98 93 93 86 87 83 80 77 82 82 84 87 93 89 91 91 87 90 98 100 98 98 98 98 97 97 97 97 97 97 96 96 96 95 96 96 96
97 94 98 98 86 89 93 98 87 83 86 81 90 86 86 85 86 88 92 89 90 92 92 91 92 96 100 100 100 99 97 97 97 96 96 96 97 97 96 95 95 95 94 95
98 91 91 97 95 97 87 81 81 84 83 84 91 90 93 95 93 95 99 94 95 96 95 95 95 96 98 100 100 100 99 97 96 96 97 96 96 97 97 97 97 97 97 97
98 97 99 94 96 95 94 91 92 93 91 89 96 98 99 98 98 100 99 92 95 94 94 91 91 95 95 100 100 100 100 98 96 97 96 96 96 93 95 97 96 97 97 98
100 98 98 95 97 97 100 94 93 98 98 100 94 99 100 100 97 96 91 94 95 92 86 84 86 93 96 97 98 93 100 98 93 96 97 96 95 95 93 89 94 96 97 97
98 98 91 93 98 95 94 90 98 93 92 95 97 94 100 100 97 94 86 90 86 84 80 80 83 92 92 96 94 84 94 97 96 99 99 96 96 96 96 95 94 93 97 97
94 95 96 97 94 87 87 91 96 95 89 93 92 96 90 100 99 93 79 78 80 79 76 76 78 93 78 92 86 78 90 99 98 100 99 94 97 96 96 95 95 95 94 93
97 91 84 93 92 89 92 94 100 97 94 96 97 92 86 88 93 84 81 81 85 88 80 75 78 96 77 82 87 71 73 95 95 100 100 98 98 98 95 95 95 95 94 96
99 88 88 85 86 93 98 95 95 97 97 91 92 88 89 87 87 84 85 82 83 79 76 72 82 95 74 71 93 63 66 84 98 100 100 100 100 100 99 97 96 96 97 97
85 90 92 91 95 92 88 88 89 91 94 93 95 93 92 91 93 91 89 85 81 73 62 74 83 98 70 75 98 68 63 72 86 100 100 100 99 100 100 100 100 99 99 99
85 88 87 88 91 94 94 95 95 97 98 95 99 100 95 92 90 92 90 92 87 86 65 79 94 88 75 86 96 72 60 63 71 89 100 99 100 100 100 100 100 100 100 100
94 93 91 92 92 95 97 96 95 100 95 96 98 100 99 93 93 94 93 97 85 81 81 86 99 74 72 91 99 72 62 60 71 84 100 100 100 100 100 100 100 100 100 100
98 97 98 100 100 96 97 96 98 100 96 96 100 100 100 97 92 91 100 100 75 77 88 91 88 68 79 100 92 76 70 68 70 84 83 98 100 100 100 100 100 100 100 100
98 100 100 100 100 100 94 96 98 99 95 94 95 96 99 98 90 88 87 93 80 86 90 94 87 66 98 98 89 78 77 81 78 83 82 92 94 100 100 100 100 100 99 97
100 100 100 100 100 100 100 94 90 91 96 94 97 97 99 98 96 100 99 75 89 88 97 95 83 74 98 96 91 80 91 95 92 94 89 96 90 89 94 99 100 98 99 98
98 100 100 100 98 100 100 87 86 91 86 80 84 87 95 100 93 80 78 92 90 90 90 96 80 86 87 97 84 83 92 100 100 100 96 96 83 74 76 94 96 97 98 96
100 100 98 97 100 98 95 98 100 94 81 91 91 88 89 89 100 92 95 95 99 95 86 91 88 84 85 81 93 90 91 100 97 100 98 94 86 80 70 74 94 100 97 96
100 100 100 99 98 100 100 98 100 93 100 89 86 92 92 93 96 98 96 98 99 97 99 91 79 86 96 98 92 100 98 97 98 93 100 96 92 82 76 66 73 93 96 96
100 94 97 98 96 88 89 95 98 97 86 97 100 93 95 97 100 92 96 95 92 93 91 86 92 93 88 94 99 96 95 90 97 100 100 100 90 83 79 68 64 76 92 95